Weather History for Trinidad, CO

Change the Weather History Date:

Sunday, August 19, 2012

  Actual Average Record
Temperature  
Mean Temperature 71 °F 71 °F  
Max Temperature 87 °F 86 °F 96 °F (2007)
Min Temperature 54 °F 57 °F 48 °F (1979)
Degree Days  
Heating Degree Days 0 0  
Month to date heating degree days 0 0  
Since 1 June heating degree days 2 42  
Since 1 July heating degree days 0 3  
Cooling Degree Days 6 7  
Month to date cooling degree days 204 139  
Year to date cooling degree days 972 574  
Since 1 June cooling degree days 926 546  
Growing Degree Days 20 (Base 50)    
Moisture  
Dew Point 42 °F    
Average Humidity 38    
Maximum Humidity 59    
Minimum Humidity 16    
Precipitation  
Precipitation 0.00 in 0.07 in 1.67 in (1965)
Month to date precipitation 0.43 1.51  
Year to date precipitation 9.74  
Snow  
Snow 0.00 in - - ()
Month to date snowfall 0.0  
Since 1 June snowfall 0.0  
Snow Depth 0.00 in    
Sea Level Pressure  
Sea Level Pressure 29.94 in    
Wind  
Wind Speed 7 mph (East)    
Max Wind Speed 20 mph    
Max Gust Speed 24 mph    
Visibility 10 miles    
Events      
T = Trace of Precipitation, MM = Missing Value Source: NWS Daily Summary

Daily Weather History Graph

Daily Weather History Graph

Search for Another Location

Airport:

Trip Planner

Search our weather history database for the weather conditions in past years. The results will help you decide how hot, cold, wet, or windy it might be!

Date:

Astronomy

Aug. 19, 2012 Rise Set
Actual Time 6:17 AM MDT 7:43 PM MDT
Civil Twilight 5:50 AM MDT 8:10 PM MDT
Nautical Twilight 5:17 AM MDT 8:43 PM MDT
Astronomical Twilight 4:42 AM MDT 9:17 PM MDT
Moon 8:30 AM MDT (8/19) 8:39 PM MDT (8/19)
Length of Visible Light 14h 20m
Length of Day
13h 25m
Waxing Crescent, 5% of the Moon is Illuminated
Aug 19
Waxing Crescent
Aug 24
First Quarter
Aug 31
Full
Sep 8
Last Quarter
Sep 15
New

Hourly Weather History & Observations

Time (MDT) Temp. Dew Point Humidity Pressure Visibility Wind Dir Wind Speed Gust Speed Precip Events Conditions
12:54 AM 66.9 °F 37.0 °F 33% 29.99 in 10.0 mi East 8.1 mph - N/A   Overcast
1:54 AM 66.9 °F 39.0 °F 36% 29.97 in 10.0 mi ESE 9.2 mph - N/A   Overcast
2:54 AM 66.0 °F 44.1 °F 45% 29.96 in 10.0 mi ESE 11.5 mph - N/A   Mostly Cloudy
3:54 AM 62.1 °F 39.0 °F 43% 29.98 in 10.0 mi ESE 8.1 mph - N/A   Clear
4:54 AM 59.0 °F 37.9 °F 46% 29.99 in 10.0 mi SSE 5.8 mph - N/A   Clear
5:54 AM 57.0 °F 36.0 °F 45% 30.00 in 10.0 mi SSW 4.6 mph - N/A   Clear
6:54 AM 55.9 °F 41.0 °F 57% 30.01 in 10.0 mi Variable 3.5 mph - N/A   Clear
8:54 AM 69.1 °F 46.0 °F 44% 29.97 in 10.0 mi East 10.4 mph - N/A   Clear
9:54 AM 73.0 °F 46.0 °F 38% 29.97 in 10.0 mi East 6.9 mph - N/A   Clear
10:54 AM 75.9 °F 43.0 °F 31% 29.96 in 10.0 mi NNE 10.4 mph - N/A   Clear
11:54 AM 78.1 °F 43.0 °F 29% 29.96 in 10.0 mi Variable 4.6 mph - N/A   Clear
12:54 PM 81.0 °F 41.0 °F 24% 29.94 in 10.0 mi North 6.9 mph - N/A   Clear
1:54 PM 82.9 °F 41.0 °F 23% 29.91 in 10.0 mi ENE 6.9 mph 16.1 mph N/A   Clear
2:54 PM 84.9 °F 39.0 °F 20% 29.88 in 10.0 mi NNE 10.4 mph 17.3 mph N/A   Clear
3:54 PM 84.9 °F 36.0 °F 17% 29.87 in 10.0 mi NNE 5.8 mph - N/A   Clear
4:54 PM 82.9 °F 35.1 °F 18% 29.88 in 10.0 mi Calm Calm - N/A   Clear
5:54 PM 84.9 °F 34.0 °F 16% 29.86 in 10.0 mi East 9.2 mph - N/A   Clear
6:54 PM 82.0 °F 36.0 °F 19% 29.88 in 10.0 mi ENE 6.9 mph - N/A   Clear
7:54 PM 75.9 °F 50.0 °F 40% 29.87 in 10.0 mi SE 15.0 mph - N/A   Clear
8:54 PM 73.0 °F 50.0 °F 44% 29.90 in 10.0 mi SSE 11.5 mph - N/A   Clear
9:54 PM 70.0 °F 50.0 °F 49% 29.93 in 10.0 mi Variable 3.5 mph - N/A   Clear
10:54 PM 70.0 °F 51.1 °F 51% 29.95 in 10.0 mi East 4.6 mph - N/A   Scattered Clouds
11:54 PM 68.0 °F 52.0 °F 56% 29.93 in 10.0 mi Calm Calm - N/A   Clear